Starlink 35011

operational
NORAD ID: 66081 Int'l Des: 2025-235 Owner: SPXS Country: US Constellation: starlink
NOTLE

About Starlink 35011

Description loading...

Live Position

Loading 3D Globe...

Upcoming Passes

Altitude History

Altitude vs Time

uPlot chart will show altitude changes over time

Two-Line Element Set

1 66081C 25235AA 25293.08451389 .00525570 00000+0 77501-3 0 2930
2 66081 53.1588 188.7675 0005435 296.2938 295.1873 16.03708221 17
Epoch: Oct 20, 2025 • Age: 14 hours

Current Status

Altitude 266.0 km
Velocity 7.75 km/s
Sub-Earth Point 19.68°N, 116.41°E
Launch Date Oct 19, 2025
Age 1 days
Type internet

Technical Details

Classification Payload
Mass 575.00 kg
Dry Mass 530.00 kg
Total Mass 575.00 kg
Length 0.30 m
Diameter 4.10 m
Span 29.00 m
Shape Box + pan
Manufacturer SPXS
Bus Type Starlink V2MO
Phase Status In Orbit
Owner/State SPXS/US

Large Constellations

Loading constellations...